[[{"header":{"parameterUnit":"m.s-1","parameterCategory":1,"la1":30.2991,"la2":30.254,"lo1":-89.0895,"lo2":-89.0444,"dy":0.0017,"dx":0.0017,"nx":28,"ny":28,"refTime":"2023-10-09T03:00:00:Z","depth":0,"parameterNumber":2,"parameterNumberName":"U-component_of_WINDS"},"data":[0,0,0,0,0,0,0,0,0,0,0,0,0,0,0,0,0,0,0,0,0,0,0,0,0,0,0,0,0,0,0,0,0,0,0,0,0,0,0,0,0,0,0,0,0,0,0,0,0,0,0,0,0,0,0,0,0,0,0.4193,0.4194,0,0.4282,0.4283,0.4284,0.4333,0.4334,0.4334,0.4334,0.4426,0.4429,0.4431,0,0,0,0,0,0,0,0,0,0,0,0,0,0.4067,0.4069,0.4193,0.4194,0.4195,0.4282,0.4283,0.4284,0.4333,0.4334,0.4334,0.4334,0.4426,0.4428,0.4431,0,0,0,0,0,0,0,0,0,0,0,0,0,0.4135,0.407,0.4193,0.423,0.4234,0.4281,0.4283,0.4284,0.4333,0.4334,0.4334,0.4334,0.4425,0.4428,0.4432,0.4449,0,0,0.4442,0.4444,0,0,0,0,0,0,0,0,0.4132,0.414,0.4223,0.4228,0.4232,0.4297,0.4273,0.4339,0.4333,0.4296,0.4334,0.4334,0.4383,0.439,0.4406,0.4453,0.4457,0.4443,0.4445,0.4446,0.4447,0,0,0,0,0,0,0,0.4127,0.4137,0.4228,0.4225,0.423,0.4243,0.4253,0.4285,0.4337,0.4299,0.4303,0.4313,0.4386,0.4403,0.4409,0.4458,0.4443,0.4446,0.4448,0.4449,0.4523,0.4523,0,0,0,0,0,0,0.4116,0.4132,0.4225,0.4231,0.4181,0.4245,0.4256,0.4276,0.4337,0.4347,0.4312,0.4315,0.4397,0.4405,0.4412,0.4436,0.4446,0.4449,0.4451,0.4523,0.4523,0.4523,0,0,0,0,0,0,0.4113,0.4124,0.4222,0.4183,0.4196,0.4247,0.4269,0.4277,0.4295,0.4347,0.4357,0.432,0.4397,0.4407,0.4439,0.444,0.4451,0.4454,0.4523,0.4523,0.4523,0.4484,0,0,0,0,0,0,0.4109,0.4122,0.4129,0.4182,0.4198,0.4246,0.4269,0.4279,0.43,0.4304,0.4357,0.4366,0.4398,0.4434,0.4443,0.4445,0.4457,0.4524,0.4523,0.4523,0.4485,0.4482,0.4479,0,0,0,0,0,0.4104,0.4115,0.4129,0.414,0.4207,0.4246,0.4255,0.4292,0.43,0.4308,0.4341,0.4364,0.4438,0.4436,0.4447,0.445,0.4524,0.4523,0.4523,0.4486,0.4483,0.448,0,0,0,0,0,0,0.4061,0.4123,0.4139,0.4167,0.4201,0.4255,0.4265,0.4287,0.432,0.4322,0.4366,0.4378,0.4405,0.4431,0.4428,0.447,0.4484,0.4485,0.4452,0.4449,0.4446,0.4439,0.446,0,0,0,0,0,0.4054,0.4081,0.4133,0.4153,0.4169,0.4214,0.4232,0.4257,0.4295,0.4309,0.4345,0.4381,0.4412,0.4432,0.4464,0.4489,0.4501,0.4497,0.4494,0.4491,0.4492,0.4507,0.4506,0.4522,0.4522,0.4522,0,0,0.4042,0.4078,0.4092,0.4145,0.4174,0.42,0.4226,0.4253,0.4273,0.4314,0.4345,0.4373,0.4416,0.4444,0.4458,0.4467,0.449,0.4491,0.4488,0.4491,0.4507,0.4505,0.4504,0.4522,0.4522,0.4522,0,0,0.4032,0.4062,0.4081,0.411,0.4154,0.4184,0.4188,0.4239,0.4258,0.4291,0.4322,0.4347,0.44,0.4429,0.4451,0.4451,0.4473,0.446,0.4446,0.446,0.4458,0.4457,0.4457,0.4457,0.4461,0.4461,0.4461,0,0.401,0.4051,0.4089,0.4114,0.4136,0.4173,0.4193,0.422,0.4272,0.4286,0.4295,0.4362,0.4393,0.4429,0.4428,0.4445,0.4452,0.4454,0.4455,0.4455,0.4454,0.4455,0.4455,0.4459,0.4459,0.4459,0.4459,0,0.4022,0.405,0.406,0.4109,0.4132,0.4154,0.4196,0.4215,0.4238,0.4267,0.4299,0.4338,0.4379,0.4389,0.4412,0.4427,0.4431,0.4447,0.4461,0.445,0.4451,0.4452,0.4456,0.4457,0.4457,0.4458,0,0,0.3987,0.4056,0.4059,0.4082,0.4133,0.4155,0.4179,0.4217,0.4233,0.4268,0.4289,0.4333,0.4347,0.4372,0.4398,0.441,0.4408,0.4425,0.4427,0.442,0.4427,0.4415,0.4414,0.4423,0.4423,0.4423,0.4423,0,0.3984,0.4029,0.4064,0.4095,0.4121,0.4157,0.4178,0.4211,0.4239,0.4265,0.4296,0.4326,0.4343,0.4358,0.4372,0.4405,0.441,0.4406,0.4443,0.4444,0.4431,0.4415,0.4402,0.44,0.4424,0.4424,0.4424,0,0.3987,0.4019,0.4053,0.4101,0.4113,0.4131,0.4169,0.4194,0.4233,0.4252,0.4279,0.4306,0.4333,0.4345,0.4383,0.4379,0.4397,0.4416,0.4416,0.4421,0.4433,0.4419,0.4401,0.44,0.4425,0.4425,0.4425,0,0.3958,0.401,0.4037,0.4055,0.4111,0.4123,0.4147,0.4186,0.4207,0.4241,0.4254,0.4291,0.431,0.4338,0.4374,0.438,0.4408,0.4423,0.4425,0.4424,0.443,0.4429,0.4413,0.4441,0.4441,0.4441,0.4441,0,0.3951,0.397,0.4024,0.4041,0.4063,0.4103,0.4125,0.4152,0.4186,0.4209,0.4242,0.4263,0.431,0.4336,0.4365,0.4392,0.4401,0.4417,0.4424,0.4414,0.4412,0.4426,0.4427,0.4441,0.4441,0.4441,0.4441,0,0.3922,0.3959,0.3991,0.4041,0.4055,0.4069,0.4112,0.413,0.4159,0.4187,0.4196,0.4242,0.4275,0.4314,0.4359,0.4378,0.4403,0.4414,0.4389,0.4393,0.4393,0.4392,0.4386,0.4387,0.4414,0.4413,0.4413,0,0.3915,0.3931,0.3982,0.4,0.4023,0.405,0.4071,0.4111,0.4132,0.4177,0.4189,0.4224,0.4254,0.4304,0.4342,0.4377,0.4389,0.4384,0.4394,0.4383,0.4389,0.4387,0.4389,0.4382,0.4381,0.4381,0.438,0,0.3899,0.3916,0.3945,0.398,0.4004,0.4034,0.4065,0.4078,0.4124,0.4146,0.4179,0.4202,0.4248,0.4282,0.4322,0.4347,0.4371,0.4377,0.4379,0.4368,0.4353,0.4361,0.4382,0.4377,0.4377,0.4377,0.4378,0.4378,0.3881,0.3896,0.3934,0.3965,0.3993,0.4021,0.404,0.4071,0.4099,0.4139,0.4161,0.4194,0.4232,0.4288,0.4312,0.4338,0.4347,0.435,0.4351,0.4351,0.4348,0.4349,0.4346,0.4346,0.4346,0.4346,0.4346,0,0.3865,0.3892,0.392,0.3962,0.3987,0.4007,0.4042,0.4061,0.4089,0.4123,0.4151,0.4189,0.4223,0.4263,0.4299,0.4312,0.4324,0.432,0.4319,0.4325,0.4338,0.4333,0.431,0.431,0.431,0.431,0.431,0.431,0.386,0.3887,0.3909,0.3949,0.3976,0.4008,0.4026,0.4053,0.4079,0.412,0.4148,0.4173,0.4209,0.4248,0.4279,0.429,0.4302,0.4295,0.4309,0.4321,0.4324,0.4327,0.4322,0.4297,0.4297,0.4293,0.4293,0.4293]},{"header":{"parameterUnit":"m.s-1","parameterCategory":1,"la1":30.2991,"la2":30.254,"lo1":-89.0895,"lo2":-89.0444,"dy":0.0017,"dx":0.0017,"nx":28,"ny":28,"refTime":"2023-10-09T03:00:00:Z","depth":0,"parameterNumber":3,"parameterNumberName":"V-component_of_WINDS"},"data":[0,0,0,0,0,0,0,0,0,0,0,0,0,0,0,0,0,0,0,0,0,0,0,0,0,0,0,0,0,0,0,0,0,0,0,0,0,0,0,0,0,0,0,0,0,0,0,0,0,0,0,0,0,0,0,0,0,0,1.219,1.219,0,1.2122,1.2121,1.212,1.2123,1.2124,1.2125,1.2126,1.2051,1.2048,1.2045,0,0,0,0,0,0,0,0,0,0,0,0,0,1.232,1.2317,1.219,1.219,1.2189,1.2122,1.2121,1.212,1.2123,1.2124,1.2125,1.2127,1.2052,1.2049,1.2045,0,0,0,0,0,0,0,0,0,0,0,0,0,1.2258,1.2317,1.2191,1.2182,1.2181,1.2122,1.2121,1.212,1.2123,1.2124,1.2126,1.2127,1.2053,1.2049,1.2045,1.1988,0,0,1.2031,1.2029,0,0,0,0,0,0,0,0,1.2262,1.2254,1.2184,1.2183,1.2181,1.2133,1.2139,1.2075,1.2122,1.2145,1.2126,1.2128,1.2077,1.207,1.2054,1.1984,1.1981,1.2031,1.2028,1.2026,1.2025,0,0,0,0,0,0,0,1.2266,1.2257,1.2163,1.2183,1.2181,1.218,1.2173,1.2127,1.2103,1.2143,1.2143,1.2135,1.2076,1.2058,1.2052,1.198,1.2031,1.2027,1.2024,1.2023,1.1859,1.1857,0,0,0,0,0,0,1.2273,1.226,1.2165,1.2161,1.2226,1.2177,1.2169,1.2147,1.2104,1.2099,1.2134,1.2135,1.2065,1.2058,1.205,1.1979,1.2026,1.2022,1.202,1.1861,1.1858,1.1857,0,0,0,0,0,0,1.2276,1.2264,1.2168,1.2211,1.2198,1.2173,1.2148,1.2144,1.2127,1.2097,1.2092,1.212,1.2066,1.2056,1.2003,1.1977,1.202,1.2016,1.1863,1.186,1.1858,1.1839,0,0,0,0,0,0,1.2279,1.2265,1.2245,1.221,1.2196,1.2124,1.2146,1.2142,1.212,1.2121,1.2083,1.2078,1.2066,1.201,1.1999,1.1971,1.2013,1.1865,1.1861,1.1858,1.1841,1.1836,1.1831,0,0,0,0,0,1.2284,1.2241,1.2244,1.2232,1.217,1.2123,1.2114,1.2103,1.2118,1.2096,1.2076,1.2079,1.1982,1.2004,1.1992,1.1963,1.1866,1.1862,1.1859,1.1844,1.1837,1.1831,0,0,0,0,0,0,1.2272,1.2237,1.2239,1.2184,1.2156,1.2123,1.2095,1.2096,1.2062,1.2065,1.2051,1.2042,1.1989,1.1971,1.1997,1.1905,1.1926,1.1919,1.1919,1.1912,1.1907,1.1911,1.2009,0,0,0,0,0,1.2263,1.2229,1.22,1.2154,1.214,1.212,1.2099,1.2093,1.2063,1.2051,1.2028,1.1997,1.196,1.1935,1.1899,1.184,1.183,1.1813,1.1808,1.1804,1.1798,1.1763,1.1755,1.1844,1.1844,1.1844,0,0,1.2244,1.2221,1.22,1.2151,1.2129,1.2092,1.211,1.2071,1.2043,1.2044,1.1993,1.1975,1.194,1.1884,1.1857,1.1867,1.1771,1.1799,1.1796,1.1792,1.1758,1.175,1.1742,1.1841,1.1842,1.1842,0,0,1.219,1.217,1.2129,1.2107,1.2074,1.2061,1.2051,1.2017,1.2006,1.1955,1.1955,1.1921,1.1857,1.1832,1.181,1.1747,1.1748,1.1736,1.1707,1.1673,1.1666,1.166,1.1636,1.1627,1.173,1.173,1.173,0,1.217,1.2116,1.2108,1.2068,1.2046,1.2048,1.2005,1.1983,1.1939,1.1923,1.1935,1.1854,1.1831,1.1767,1.1752,1.1736,1.1722,1.1739,1.1669,1.1662,1.1656,1.1632,1.1623,1.1729,1.1729,1.1729,1.1729,0,1.2092,1.2055,1.2026,1.1984,1.1959,1.1918,1.1902,1.1877,1.1874,1.1859,1.1806,1.1778,1.1736,1.1721,1.1716,1.1656,1.1663,1.1672,1.1692,1.1646,1.1624,1.1615,1.1727,1.1727,1.1728,1.1728,0,0,1.2027,1.1982,1.1972,1.1952,1.1916,1.1886,1.1845,1.1805,1.1783,1.1753,1.1716,1.1663,1.167,1.1646,1.1639,1.161,1.1559,1.1622,1.1621,1.161,1.1489,1.1481,1.1471,1.1561,1.1559,1.1558,1.1492,0,1.1968,1.1896,1.1887,1.1822,1.1787,1.1788,1.1752,1.1724,1.171,1.1676,1.1659,1.162,1.1635,1.162,1.1592,1.1572,1.1535,1.1577,1.1524,1.1522,1.1531,1.146,1.1451,1.139,1.1483,1.1481,1.148,0,1.1889,1.1858,1.179,1.1758,1.1742,1.171,1.1672,1.1641,1.161,1.1601,1.1574,1.1571,1.1526,1.155,1.1487,1.1515,1.1494,1.1481,1.1478,1.1471,1.1497,1.1448,1.1371,1.1361,1.1467,1.1468,1.1469,0,1.1846,1.1787,1.1738,1.1722,1.1684,1.1661,1.1644,1.1614,1.159,1.1557,1.1541,1.1503,1.1481,1.1451,1.1436,1.1455,1.1373,1.1396,1.1363,1.1363,1.1344,1.1345,1.1259,1.1333,1.1334,1.1334,1.1334,0,1.1779,1.1737,1.1718,1.1688,1.164,1.163,1.1583,1.1566,1.154,1.1505,1.1504,1.1471,1.1455,1.1419,1.1408,1.1356,1.1347,1.1337,1.1334,1.1336,1.1337,1.132,1.1323,1.1331,1.1332,1.1332,1.1333,0,1.1722,1.1708,1.1655,1.1624,1.1615,1.1581,1.1553,1.1523,1.1509,1.1465,1.1454,1.1432,1.1389,1.1373,1.1321,1.1313,1.1253,1.1254,1.1264,1.1262,1.1229,1.1232,1.1128,1.1113,1.1199,1.1198,1.1197,0,1.1679,1.1647,1.1613,1.159,1.1573,1.1536,1.1513,1.1501,1.1476,1.1438,1.1412,1.1371,1.1336,1.1269,1.1246,1.1206,1.1205,1.1172,1.1199,1.1201,1.1202,1.1203,1.1199,1.1166,1.1165,1.1164,1.1164,0,1.1604,1.1599,1.1566,1.153,1.1502,1.1472,1.1444,1.1425,1.1409,1.138,1.1338,1.1312,1.1259,1.1217,1.1176,1.1156,1.1156,1.1156,1.1145,1.1146,1.1152,1.1146,1.1248,1.1157,1.1158,1.1158,1.1159,1.1159,1.1552,1.1523,1.1494,1.1456,1.1434,1.1407,1.1377,1.136,1.1325,1.1282,1.1278,1.1232,1.12,1.1145,1.1124,1.1086,1.1095,1.1081,1.1077,1.1073,1.1069,1.116,1.1079,1.1079,1.1079,1.108,1.108,0,1.1475,1.1457,1.1423,1.1383,1.1353,1.1359,1.1327,1.1301,1.1261,1.1232,1.1199,1.115,1.1109,1.1084,1.1042,1.1017,1.1016,1.1006,1.1007,1.1002,1.1065,1.1077,1.1008,1.1008,1.1008,1.1008,1.1008,1.1008,1.1432,1.1382,1.1374,1.1313,1.1294,1.125,1.1232,1.1206,1.1183,1.1129,1.1095,1.108,1.1052,1.1009,1.0971,1.0965,1.0948,1.0938,1.0931,1.099,1.0998,1.1005,1.1016,1.0935,1.0935,1.0871,1.087,1.087]}]]